{"data":{"norad_id":48568,"epoch":"2026-05-25T02:50:57.812352Z","epoch_age_seconds":71622,"freshness":"FRESH","line1":"1 48568U 21041R   26145.11872468  .00001376  00000+0  56111-4 0  9998","line2":"2 48568  53.1612 131.6662 0001291  97.7968 262.3180 15.31690331276970","mean_motion":15.31690331,"eccentricity":0.0001291,"inclination_deg":53.1612,"raan_deg":131.6662,"arg_perigee_deg":97.7968,"mean_anomaly_deg":262.318,"bstar":5.6111e-5,"rev_number":27697,"period_min":94.013781431907,"perigee_km":469.88462442201,"apogee_km":471.65301190426,"semimajor_km":6848.9058181631,"source":"CELESTRAK","updated_at":"2026-05-25T13:38:16.726299Z"}}